Time,TemperatureF,DewpointF,PressureIn,WindDirection,WindDirectionDegrees,WindSpeedMPH,WindSpeedGustMPH,Humidity,HourlyPrecipIn,Conditions,Clouds,dailyrainin,SoftwareType,DateUTC
2013-03-02 00:00:00,32.0,32.0,29.14,NNW,337,12.0,12.0,100,0.00,,,0.00,Weather View 32 v70,2013-03-02 05:00:00,
2013-03-02 00:05:00,32.0,32.0,29.15,NNE,22,9.0,12.0,100,0.00,,,0.00,Weather View 32 v70,2013-03-02 05:05:00,
2013-03-02 00:10:00,32.0,32.0,29.14,ENE,67,1.0,13.0,100,0.00,,,0.00,Weather View 32 v70,2013-03-02 05:10:00,
2013-03-02 00:15:00,32.0,32.0,29.15,ENE,67,0.0,13.0,100,0.00,,,0.00,Weather View 32 v70,2013-03-02 05:15:00,
2013-03-02 00:20:00,32.0,32.0,29.15,NNW,337,8.0,13.0,100,0.00,,,0.00,Weather View 32 v70,2013-03-02 05:20:00,
2013-03-02 00:25:00,32.0,32.0,29.15,North,360,5.0,13.0,100,0.00,,,0.00,Weather View 32 v70,2013-03-02 05:25:00,
2013-03-02 00:30:00,32.0,32.0,29.14,North,360,1.0,13.0,100,0.00,,,0.00,Weather View 32 v70,2013-03-02 05:30:00,
2013-03-02 00:35:00,32.0,32.0,29.14,North,360,5.0,13.0,100,0.00,,,0.00,Weather View 32 v70,2013-03-02 05:35:00,
2013-03-02 00:40:00,32.0,32.0,29.14,NNW,337,5.0,13.0,100,0.00,,,0.00,Weather View 32 v70,2013-03-02 05:40:00,
2013-03-02 00:45:00,32.0,32.0,29.15,NW,315,7.0,13.0,100,0.00,,,0.00,Weather View 32 v70,2013-03-02 05:45:00,
2013-03-02 00:50:00,32.0,32.0,29.14,NNW,337,3.0,13.0,100,0.00,,,0.00,Weather View 32 v70,2013-03-02 05:50:00,
2013-03-02 00:55:00,32.0,32.0,29.15,North,360,3.0,13.0,100,0.00,,,0.00,Weather View 32 v70,2013-03-02 05:55:00,
2013-03-02 01:00:00,32.0,32.0,29.15,NW,315,9.0,13.0,100,0.00,,,0.00,Weather View 32 v70,2013-03-02 06:00:00,
2013-03-02 01:05:00,32.0,32.0,29.14,WNW,292,3.0,13.0,100,0.00,,,0.00,Weather View 32 v70,2013-03-02 06:05:00,
2013-03-02 01:10:00,32.0,32.0,29.14,NE,45,3.0,13.0,100,0.00,,,0.00,Weather View 32 v70,2013-03-02 06:10:00,
2013-03-02 01:15:00,32.0,31.8,29.12,NW,315,6.0,13.0,99,0.00,,,0.00,Weather View 32 v70,2013-03-02 06:15:00,
2013-03-02 01:20:00,32.0,31.8,29.15,NE,45,3.0,13.0,99,0.00,,,0.00,Weather View 32 v70,2013-03-02 06:20:00,
2013-03-02 01:25:00,32.0,31.8,29.15,NNW,337,6.0,13.0,99,0.00,,,0.00,Weather View 32 v70,2013-03-02 06:25:00,
2013-03-02 01:30:00,32.0,31.8,29.15,NNW,337,6.0,13.0,99,0.00,,,0.00,Weather View 32 v70,2013-03-02 06:30:00,
2013-03-02 01:35:00,32.0,31.8,29.14,NE,45,1.0,13.0,99,0.00,,,0.00,Weather View 32 v70,2013-03-02 06:35:00,
2013-03-02 01:40:00,32.0,31.8,29.14,North,360,4.0,13.0,99,0.00,,,0.00,Weather View 32 v70,2013-03-02 06:40:00,
2013-03-02 01:45:00,32.0,31.8,29.14,NNW,337,10.0,13.0,99,0.00,,,0.00,Weather View 32 v70,2013-03-02 06:45:00,
2013-03-02 01:50:00,32.0,31.8,29.14,SSE,157,2.0,13.0,99,0.00,,,0.00,Weather View 32 v70,2013-03-02 06:50:00,
2013-03-02 01:55:00,32.0,31.5,29.14,NW,315,9.0,13.0,98,0.00,,,0.00,Weather View 32 v70,2013-03-02 06:55:00,
2013-03-02 02:00:00,32.0,31.5,29.14,North,360,1.0,15.0,98,0.00,,,0.00,Weather View 32 v70,2013-03-02 07:00:00,
2013-03-02 02:05:00,32.0,31.2,29.14,NE,45,3.0,15.0,97,0.00,,,0.00,Weather View 32 v70,2013-03-02 07:05:00,
2013-03-02 02:10:00,32.0,31.2,29.14,North,360,6.0,15.0,97,0.00,,,0.00,Weather View 32 v70,2013-03-02 07:10:00,
2013-03-02 02:15:00,32.0,31.2,29.15,NW,315,9.0,15.0,97,0.00,,,0.00,Weather View 32 v70,2013-03-02 07:15:00,
2013-03-02 02:20:00,32.0,31.0,29.14,NNE,22,7.0,15.0,96,0.00,,,0.00,Weather View 32 v70,2013-03-02 07:20:00,
2013-03-02 02:25:00,32.0,31.0,29.14,ESE,112,3.0,15.0,96,0.00,,,0.00,Weather View 32 v70,2013-03-02 07:25:00,
2013-03-02 02:30:00,32.0,31.0,29.14,NNE,22,6.0,15.0,96,0.00,,,0.00,Weather View 32 v70,2013-03-02 07:30:00,
2013-03-02 02:35:00,32.0,31.0,29.14,North,360,5.0,15.0,96,0.00,,,0.00,Weather View 32 v70,2013-03-02 07:35:00,
2013-03-02 02:40:00,32.0,30.7,29.14,East,90,3.0,15.0,95,0.00,,,0.00,Weather View 32 v70,2013-03-02 07:40:00,
2013-03-02 02:45:00,32.0,30.7,29.15,NNW,337,17.0,17.0,95,0.00,,,0.00,Weather View 32 v70,2013-03-02 07:45:00,
2013-03-02 02:50:00,32.0,30.7,29.15,NNE,22,9.0,17.0,95,0.00,,,0.00,Weather View 32 v70,2013-03-02 07:50:00,
2013-03-02 02:55:00,32.0,30.7,29.15,North,360,9.0,17.0,95,0.00,,,0.00,Weather View 32 v70,2013-03-02 07:55:00,
2013-03-02 03:00:00,32.0,30.5,29.15,SSE,157,4.0,17.0,94,0.00,,,0.00,Weather View 32 v70,2013-03-02 08:00:00,
2013-03-02 03:05:00,32.0,30.5,29.15,NNW,337,7.0,17.0,94,0.00,,,0.00,Weather View 32 v70,2013-03-02 08:05:00,
2013-03-02 03:10:00,32.0,30.5,29.15,East,90,3.0,17.0,94,0.00,,,0.00,Weather View 32 v70,2013-03-02 08:10:00,
2013-03-02 03:15:00,32.0,30.5,29.15,North,360,9.0,17.0,94,0.00,,,0.00,Weather View 32 v70,2013-03-02 08:15:00,
2013-03-02 03:20:00,32.0,30.5,29.13,NW,315,10.0,17.0,94,0.00,,,0.00,Weather View 32 v70,2013-03-02 08:20:00,
2013-03-02 03:25:00,32.0,30.5,29.14,North,360,7.0,17.0,94,0.00,,,0.00,Weather View 32 v70,2013-03-02 08:25:00,
2013-03-02 03:30:00,32.0,30.5,29.13,ENE,67,3.0,17.0,94,0.00,,,0.00,Weather View 32 v70,2013-03-02 08:30:00,
2013-03-02 03:35:00,32.0,30.5,29.13,NW,315,5.0,17.0,94,0.00,,,0.00,Weather View 32 v70,2013-03-02 08:35:00,
2013-03-02 03:40:00,32.0,30.5,29.13,North,360,6.0,17.0,94,0.00,,,0.00,Weather View 32 v70,2013-03-02 08:40:00,
2013-03-02 03:45:00,31.0,29.5,29.11,NNE,22,10.0,17.0,94,0.00,,,0.00,Weather View 32 v70,2013-03-02 08:45:00,
2013-03-02 03:50:00,31.0,29.5,29.14,NNW,337,3.0,16.0,94,0.00,,,0.00,Weather View 32 v70,2013-03-02 08:50:00,
2013-03-02 03:55:00,31.0,29.5,29.13,NW,315,6.0,16.0,94,0.00,,,0.00,Weather View 32 v70,2013-03-02 08:55:00,
2013-03-02 04:00:00,31.0,29.5,29.11,West,270,6.0,16.0,94,0.00,,,0.00,Weather View 32 v70,2013-03-02 09:00:00,
2013-03-02 04:05:00,31.0,29.5,29.13,WNW,292,5.0,16.0,94,0.00,,,0.00,Weather View 32 v70,2013-03-02 09:05:00,
2013-03-02 04:10:00,31.0,29.5,29.13,NE,45,10.0,16.0,94,0.00,,,0.00,Weather View 32 v70,2013-03-02 09:10:00,
2013-03-02 04:15:00,31.0,29.5,29.13,NNE,22,6.0,16.0,94,0.00,,,0.00,Weather View 32 v70,2013-03-02 09:15:00,
2013-03-02 04:20:00,31.0,29.5,29.13,NNW,337,10.0,16.0,94,0.00,,,0.00,Weather View 32 v70,2013-03-02 09:20:00,
2013-03-02 04:25:00,31.0,29.5,29.13,WNW,292,3.0,15.0,94,0.00,,,0.00,Weather View 32 v70,2013-03-02 09:25:00,
2013-03-02 04:30:00,31.0,29.5,29.12,North,360,10.0,15.0,94,0.00,,,0.00,Weather View 32 v70,2013-03-02 09:30:00,
2013-03-02 04:35:00,31.0,29.5,29.13,NNE,22,9.0,15.0,94,0.00,,,0.00,Weather View 32 v70,2013-03-02 09:35:00,
2013-03-02 04:40:00,31.0,29.5,29.13,NE,45,9.0,15.0,94,0.00,,,0.00,Weather View 32 v70,2013-03-02 09:40:00,
2013-03-02 04:45:00,31.0,29.5,29.13,NE,45,8.0,15.0,94,0.00,,,0.00,Weather View 32 v70,2013-03-02 09:45:00,
2013-03-02 04:50:00,31.0,29.5,29.13,NNE,22,8.0,15.0,94,0.00,,,0.00,Weather View 32 v70,2013-03-02 09:50:00,
2013-03-02 04:55:00,31.0,29.5,29.12,NNE,22,6.0,15.0,94,0.00,,,0.00,Weather View 32 v70,2013-03-02 09:55:00,
2013-03-02 05:00:00,31.0,29.5,29.13,NNE,22,3.0,15.0,94,0.00,,,0.00,Weather View 32 v70,2013-03-02 10:00:00,
2013-03-02 05:05:00,31.0,29.5,29.13,NNW,337,4.0,15.0,94,0.00,,,0.00,Weather View 32 v70,2013-03-02 10:05:00,
2013-03-02 05:10:00,31.0,29.5,29.12,NE,45,6.0,14.0,94,0.00,,,0.00,Weather View 32 v70,2013-03-02 10:10:00,
2013-03-02 05:20:00,31.0,29.7,29.12,West,270,4.0,14.0,95,0.00,,,0.00,Weather View 32 v70,2013-03-02 10:20:00,
2013-03-02 05:30:00,31.0,29.7,29.12,NNW,337,7.0,15.0,95,0.00,,,0.00,Weather View 32 v70,2013-03-02 10:30:00,
2013-03-02 05:38:00,31.0,29.5,29.12,WNW,292,9.0,15.0,94,0.00,,,0.00,Weather View 32 v70,2013-03-02 10:38:00,
2013-03-02 05:43:00,31.0,29.5,29.13,NW,315,7.0,15.0,94,0.00,,,0.00,Weather View 32 v70,2013-03-02 10:43:00,
2013-03-02 05:48:00,31.0,29.5,29.13,North,360,4.0,15.0,94,0.00,,,0.00,Weather View 32 v70,2013-03-02 10:48:00,
2013-03-02 05:53:00,31.0,29.2,29.13,NNE,22,7.0,16.0,93,0.00,,,0.00,Weather View 32 v70,2013-03-02 10:53:00,
2013-03-02 05:58:00,31.0,29.5,29.13,NE,45,6.0,16.0,94,0.00,,,0.00,Weather View 32 v70,2013-03-02 10:58:00,
2013-03-02 06:03:00,31.0,29.5,29.13,North,360,7.0,16.0,94,0.00,,,0.00,Weather View 32 v70,2013-03-02 11:03:00,
2013-03-02 06:08:00,31.0,29.5,29.13,North,360,6.0,16.0,94,0.00,,,0.00,Weather View 32 v70,2013-03-02 11:08:00,
2013-03-02 06:13:00,31.0,29.5,29.13,NE,45,7.0,16.0,94,0.00,,,0.00,Weather View 32 v70,2013-03-02 11:13:00,
2013-03-02 06:18:00,31.0,29.5,29.13,South,180,5.0,16.0,94,0.00,,,0.00,Weather View 32 v70,2013-03-02 11:18:00,
2013-03-02 06:23:00,31.0,29.5,29.13,NE,45,10.0,16.0,94,0.00,,,0.00,Weather View 32 v70,2013-03-02 11:23:00,
2013-03-02 06:28:00,31.0,29.5,29.14,ENE,67,3.0,16.0,94,0.00,,,0.00,Weather View 32 v70,2013-03-02 11:28:00,
2013-03-02 06:33:00,31.0,29.5,29.13,NE,45,9.0,16.0,94,0.00,,,0.00,Weather View 32 v70,2013-03-02 11:33:00,
2013-03-02 06:38:00,31.0,29.5,29.14,NNE,22,3.0,16.0,94,0.00,,,0.00,Weather View 32 v70,2013-03-02 11:38:00,
2013-03-02 06:43:00,31.0,29.5,29.13,NW,315,4.0,16.0,94,0.00,,,0.00,Weather View 32 v70,2013-03-02 11:43:00,
2013-03-02 06:48:00,31.0,29.5,29.14,NW,315,7.0,16.0,94,0.00,,,0.00,Weather View 32 v70,2013-03-02 11:48:00,
2013-03-02 06:53:00,31.0,29.2,29.14,North,360,6.0,16.0,93,0.00,,,0.00,Weather View 32 v70,2013-03-02 11:53:00,
2013-03-02 06:58:00,31.0,29.2,29.14,NW,315,6.0,16.0,93,0.00,,,0.00,Weather View 32 v70,2013-03-02 11:58:00,
2013-03-02 07:03:00,32.0,29.9,29.14,NNE,22,3.0,19.0,92,0.00,,,0.00,Weather View 32 v70,2013-03-02 12:03:00,
2013-03-02 07:08:00,32.0,29.9,29.16,NNE,22,9.0,19.0,92,0.00,,,0.00,Weather View 32 v70,2013-03-02 12:08:00,
2013-03-02 07:13:00,32.0,29.9,29.16,NNW,337,9.0,19.0,92,0.00,,,0.00,Weather View 32 v70,2013-03-02 12:13:00,
2013-03-02 07:18:00,32.0,29.9,29.16,NNW,337,6.0,19.0,92,0.00,,,0.00,Weather View 32 v70,2013-03-02 12:18:00,
2013-03-02 07:23:00,32.0,29.9,29.16,NNE,22,7.0,19.0,92,0.00,,,0.00,Weather View 32 v70,2013-03-02 12:23:00,
2013-03-02 07:28:00,32.0,29.9,29.16,NNE,22,12.0,19.0,92,0.00,,,0.00,Weather View 32 v70,2013-03-02 12:28:00,
2013-03-02 07:33:00,32.0,29.9,29.15,SE,135,5.0,19.0,92,0.00,,,0.00,Weather View 32 v70,2013-03-02 12:33:00,
2013-03-02 07:38:00,32.0,29.9,29.15,NNE,22,6.0,19.0,92,0.00,,,0.00,Weather View 32 v70,2013-03-02 12:38:00,
2013-03-02 07:43:00,32.0,29.9,29.14,NNE,22,3.0,19.0,92,0.00,,,0.00,Weather View 32 v70,2013-03-02 12:43:00,
2013-03-02 07:48:00,32.0,29.9,29.15,NE,45,6.0,19.0,92,0.00,,,0.00,Weather View 32 v70,2013-03-02 12:48:00,
2013-03-02 07:53:00,32.0,29.9,29.14,North,360,8.0,19.0,92,0.00,,,0.00,Weather View 32 v70,2013-03-02 12:53:00,
2013-03-02 07:58:00,32.0,29.9,29.15,East,90,6.0,19.0,92,0.00,,,0.00,Weather View 32 v70,2013-03-02 12:58:00,
2013-03-02 08:03:00,32.0,29.9,29.14,NNW,337,5.0,17.0,92,0.00,,,0.00,Weather View 32 v70,2013-03-02 13:03:00,
2013-03-02 08:08:00,32.0,29.7,29.15,SE,135,3.0,17.0,91,0.00,,,0.00,Weather View 32 v70,2013-03-02 13:08:00,
2013-03-02 08:13:00,32.0,29.7,29.15,ESE,112,4.0,19.0,91,0.00,,,0.00,Weather View 32 v70,2013-03-02 13:13:00,
2013-03-02 08:18:00,32.0,29.7,29.15,North,360,7.0,19.0,91,0.00,,,0.00,Weather View 32 v70,2013-03-02 13:18:00,
2013-03-02 08:23:00,32.0,29.4,29.15,North,360,2.0,19.0,90,0.00,,,0.00,Weather View 32 v70,2013-03-02 13:23:00,
2013-03-02 08:28:00,32.0,29.4,29.15,WNW,292,1.0,19.0,90,0.00,,,0.00,Weather View 32 v70,2013-03-02 13:28:00,
2013-03-02 08:33:00,32.0,29.4,29.15,WNW,292,7.0,19.0,90,0.00,,,0.00,Weather View 32 v70,2013-03-02 13:33:00,
2013-03-02 08:39:00,32.0,29.4,29.15,NNW,337,9.0,19.0,90,0.00,,,0.00,Weather View 32 v70,2013-03-02 13:39:00,
2013-03-02 08:44:00,32.0,29.4,29.15,East,90,3.0,19.0,90,0.00,,,0.00,Weather View 32 v70,2013-03-02 13:44:00,
2013-03-02 08:49:00,32.0,29.4,29.15,NNE,22,10.0,19.0,90,0.00,,,0.00,Weather View 32 v70,2013-03-02 13:49:00,
2013-03-02 08:54:00,33.0,30.1,29.14,NW,315,4.0,19.0,89,0.00,,,0.00,Weather View 32 v70,2013-03-02 13:54:00,
2013-03-02 08:59:00,33.0,30.1,29.15,NNE,22,3.0,19.0,89,0.00,,,0.00,Weather View 32 v70,2013-03-02 13:59:00,
2013-03-02 09:04:00,33.0,29.8,29.15,NNE,22,5.0,19.0,88,0.00,,,0.00,Weather View 32 v70,2013-03-02 14:04:00,
2013-03-02 09:09:00,33.0,29.8,29.15,NNW,337,5.0,19.0,88,0.00,,,0.00,Weather View 32 v70,2013-03-02 14:09:00,
2013-03-02 09:14:00,33.0,30.1,29.15,West,270,4.0,17.0,89,0.00,,,0.00,Weather View 32 v70,2013-03-02 14:14:00,
2013-03-02 09:19:00,33.0,30.1,29.15,SSW,202,4.0,17.0,89,0.00,,,0.00,Weather View 32 v70,2013-03-02 14:19:00,
2013-03-02 09:24:00,33.0,30.4,29.15,SSE,157,6.0,17.0,90,0.00,,,0.00,Weather View 32 v70,2013-03-02 14:24:00,
2013-03-02 09:29:00,33.0,30.7,29.15,WNW,292,4.0,17.0,91,0.00,,,0.00,Weather View 32 v70,2013-03-02 14:29:00,
2013-03-02 09:34:00,33.0,31.2,29.15,NNE,22,5.0,17.0,93,0.00,,,0.00,Weather View 32 v70,2013-03-02 14:34:00,
2013-03-02 09:39:00,33.0,31.7,29.15,SE,135,3.0,17.0,95,0.00,,,0.00,Weather View 32 v70,2013-03-02 14:39:00,
2013-03-02 09:44:00,33.0,32.0,29.15,NNW,337,8.0,17.0,96,0.00,,,0.00,Weather View 32 v70,2013-03-02 14:44:00,
2013-03-02 09:49:00,32.0,31.2,29.15,NNE,22,7.0,17.0,97,0.00,,,0.00,Weather View 32 v70,2013-03-02 14:49:00,
2013-03-02 09:54:00,32.0,31.0,29.15,NNW,337,10.0,17.0,96,0.00,,,0.00,Weather View 32 v70,2013-03-02 14:54:00,
2013-03-02 09:59:00,33.0,31.7,29.14,NW,315,8.0,17.0,95,0.00,,,0.00,Weather View 32 v70,2013-03-02 14:59:00,
2013-03-02 10:04:00,33.0,31.5,29.15,NNE,22,10.0,17.0,94,0.00,,,0.00,Weather View 32 v70,2013-03-02 15:04:00,
2013-03-02 10:09:00,33.0,31.5,29.15,North,360,7.0,17.0,94,0.00,,,0.00,Weather View 32 v70,2013-03-02 15:09:00,
2013-03-02 10:14:00,33.0,31.5,29.16,North,360,7.0,17.0,94,0.00,,,0.00,Weather View 32 v70,2013-03-02 15:14:00,
2013-03-02 10:19:00,33.0,31.2,29.16,NNE,22,6.0,17.0,93,0.00,,,0.00,Weather View 32 v70,2013-03-02 15:19:00,
2013-03-02 10:24:00,33.0,31.2,29.15,NNW,337,13.0,18.0,93,0.00,,,0.00,Weather View 32 v70,2013-03-02 15:24:00,
2013-03-02 10:29:00,33.0,31.2,29.16,NNE,22,13.0,18.0,93,0.00,,,0.00,Weather View 32 v70,2013-03-02 15:29:00,
2013-03-02 10:34:00,33.0,31.2,29.15,NW,315,1.0,18.0,93,0.00,,,0.00,Weather View 32 v70,2013-03-02 15:34:00,
2013-03-02 10:39:00,33.0,30.9,29.15,NNW,337,7.0,18.0,92,0.00,,,0.00,Weather View 32 v70,2013-03-02 15:39:00,
2013-03-02 10:44:00,34.0,31.9,29.16,NW,315,11.0,18.0,92,0.00,,,0.00,Weather View 32 v70,2013-03-02 15:44:00,
2013-03-02 10:49:00,34.0,31.9,29.16,NNE,22,10.0,18.0,92,0.00,,,0.00,Weather View 32 v70,2013-03-02 15:49:00,
2013-03-02 10:54:00,34.0,31.9,29.17,NNE,22,7.0,18.0,92,0.01,,,0.01,Weather View 32 v70,2013-03-02 15:54:00,
2013-03-02 10:59:00,34.0,31.6,29.17,North,360,5.0,22.0,91,0.02,,,0.02,Weather View 32 v70,2013-03-02 15:59:00,
2013-03-02 11:04:00,34.0,31.6,29.16,NNW,337,12.0,22.0,91,0.03,,,0.03,Weather View 32 v70,2013-03-02 16:04:00,
2013-03-02 11:09:00,34.0,31.6,29.16,NW,315,3.0,22.0,91,0.03,,,0.03,Weather View 32 v70,2013-03-02 16:09:00,
2013-03-02 11:14:00,34.0,31.1,29.16,West,270,3.0,22.0,89,0.03,,,0.03,Weather View 32 v70,2013-03-02 16:14:00,
2013-03-02 11:19:00,35.0,32.4,29.16,NW,315,3.0,22.0,90,0.04,,,0.04,Weather View 32 v70,2013-03-02 16:19:00,
2013-03-02 11:24:00,35.0,32.1,29.16,NNE,22,8.0,22.0,89,0.05,,,0.05,Weather View 32 v70,2013-03-02 16:24:00,
2013-03-02 11:29:00,35.0,32.1,29.14,NNE,22,7.0,22.0,89,0.05,,,0.06,Weather View 32 v70,2013-03-02 16:29:00,
2013-03-02 11:34:00,35.0,32.1,29.17,NNE,22,7.0,22.0,89,0.06,,,0.06,Weather View 32 v70,2013-03-02 16:34:00,
2013-03-02 11:39:00,35.0,32.1,29.17,NW,315,1.0,22.0,89,0.07,,,0.07,Weather View 32 v70,2013-03-02 16:39:00,
2013-03-02 11:44:00,35.0,31.5,29.17,North,360,5.0,22.0,87,0.07,,,0.07,Weather View 32 v70,2013-03-02 16:44:00,
2013-03-02 11:49:00,36.0,32.5,29.17,NNW,337,15.0,22.0,87,0.08,,,0.08,Weather View 32 v70,2013-03-02 16:49:00,
2013-03-02 11:54:00,36.0,32.5,29.16,NE,45,4.0,22.0,87,0.07,,,0.08,Weather View 32 v70,2013-03-02 16:54:00,
2013-03-02 11:59:00,36.0,32.5,29.17,NE,45,4.0,19.0,87,0.07,,,0.09,Weather View 32 v70,2013-03-02 16:59:00,
2013-03-02 12:04:00,36.0,32.5,29.17,NNW,337,7.0,19.0,87,0.06,,,0.09,Weather View 32 v70,2013-03-02 17:04:00,
2013-03-02 12:09:00,36.0,32.2,29.17,SSW,202,6.0,19.0,86,0.06,,,0.09,Weather View 32 v70,2013-03-02 17:09:00,
2013-03-02 12:14:00,37.0,33.2,29.17,NNE,22,7.0,19.0,86,0.07,,,0.10,Weather View 32 v70,2013-03-02 17:14:00,
2013-03-02 12:19:00,37.0,33.2,29.16,SSW,202,2.0,19.0,86,0.06,,,0.10,Weather View 32 v70,2013-03-02 17:19:00,
2013-03-02 12:24:00,37.0,32.6,29.17,NE,45,6.0,19.0,84,0.05,,,0.10,Weather View 32 v70,2013-03-02 17:24:00,
2013-03-02 12:29:00,37.0,32.6,29.17,West,270,2.0,19.0,84,0.05,,,0.10,Weather View 32 v70,2013-03-02 17:29:00,
2013-03-02 12:34:00,37.0,32.3,29.17,NNE,22,6.0,19.0,83,0.05,,,0.11,Weather View 32 v70,2013-03-02 17:34:00,
2013-03-02 12:39:00,37.0,32.6,29.17,NW,315,10.0,19.0,84,0.04,,,0.11,Weather View 32 v70,2013-03-02 17:39:00,
2013-03-02 12:44:00,37.0,32.6,29.17,NNW,337,10.0,19.0,84,0.04,,,0.11,Weather View 32 v70,2013-03-02 17:44:00,
2013-03-02 12:49:00,38.0,33.0,29.17,NNE,22,9.0,19.0,82,0.03,,,0.11,Weather View 32 v70,2013-03-02 17:49:00,
2013-03-02 12:54:00,37.0,32.6,29.17,NNW,337,7.0,17.0,84,0.03,,,0.11,Weather View 32 v70,2013-03-02 17:54:00,
2013-03-02 12:59:00,37.0,32.6,29.17,NNE,22,13.0,19.0,84,0.02,,,0.11,Weather View 32 v70,2013-03-02 17:59:00,
2013-03-02 13:04:00,37.0,32.9,29.17,NNE,22,15.0,20.0,85,0.02,,,0.11,Weather View 32 v70,2013-03-02 18:04:00,
2013-03-02 13:09:00,37.0,33.2,29.17,NNE,22,4.0,20.0,86,0.02,,,0.11,Weather View 32 v70,2013-03-02 18:09:00,
2013-03-02 13:14:00,37.0,33.2,29.17,NNE,22,9.0,20.0,86,0.01,,,0.11,Weather View 32 v70,2013-03-02 18:14:00,
2013-03-02 13:19:00,37.0,33.5,29.17,NNW,337,6.0,20.0,87,0.01,,,0.11,Weather View 32 v70,2013-03-02 18:19:00,
2013-03-02 13:24:00,37.0,33.2,29.16,NNE,22,10.0,20.0,86,0.01,,,0.11,Weather View 32 v70,2013-03-02 18:24:00,
2013-03-02 13:29:00,37.0,33.2,29.17,SSW,202,5.0,20.0,86,0.01,,,0.11,Weather View 32 v70,2013-03-02 18:29:00,
2013-03-02 13:34:00,37.0,33.2,29.17,NNE,22,12.0,20.0,86,0.00,,,0.11,Weather View 32 v70,2013-03-02 18:34:00,
2013-03-02 13:39:00,37.0,33.2,29.17,North,360,9.0,20.0,86,0.00,,,0.11,Weather View 32 v70,2013-03-02 18:39:00,
2013-03-02 13:44:00,37.0,33.5,29.17,ESE,112,1.0,20.0,87,0.00,,,0.11,Weather View 32 v70,2013-03-02 18:44:00,
2013-03-02 13:49:00,38.0,34.2,29.17,North,360,8.0,20.0,86,0.00,,,0.11,Weather View 32 v70,2013-03-02 18:49:00,
2013-03-02 13:54:00,38.0,33.9,29.17,North,360,9.0,20.0,85,0.00,,,0.11,Weather View 32 v70,2013-03-02 18:54:00,
2013-03-02 13:59:00,38.0,34.2,29.17,NW,315,3.0,20.0,86,0.00,,,0.11,Weather View 32 v70,2013-03-02 18:59:00,
2013-03-02 14:04:00,38.0,34.2,29.17,WNW,292,5.0,20.0,86,0.00,,,0.11,Weather View 32 v70,2013-03-02 19:04:00,
2013-03-02 14:09:00,38.0,34.5,29.15,WNW,292,6.0,16.0,87,0.00,,,0.11,Weather View 32 v70,2013-03-02 19:09:00,
2013-03-02 14:14:00,38.0,34.2,29.17,NNE,22,1.0,16.0,86,0.00,,,0.11,Weather View 32 v70,2013-03-02 19:14:00,
2013-03-02 14:19:00,38.0,33.9,29.17,WNW,292,5.0,18.0,85,0.00,,,0.11,Weather View 32 v70,2013-03-02 19:19:00,
2013-03-02 14:24:00,39.0,34.9,29.17,NNE,22,13.0,18.0,85,0.00,,,0.11,Weather View 32 v70,2013-03-02 19:24:00,
2013-03-02 14:29:00,39.0,34.9,29.17,WNW,292,7.0,18.0,85,0.00,,,0.11,Weather View 32 v70,2013-03-02 19:29:00,
2013-03-02 14:34:00,39.0,34.9,29.17,North,360,7.0,18.0,85,0.00,,,0.11,Weather View 32 v70,2013-03-02 19:34:00,
2013-03-02 14:39:00,38.0,34.2,29.17,North,360,7.0,18.0,86,0.00,,,0.11,Weather View 32 v70,2013-03-02 19:39:00,
2013-03-02 14:44:00,38.0,34.8,29.17,North,360,10.0,18.0,88,0.00,,,0.11,Weather View 32 v70,2013-03-02 19:44:00,
2013-03-02 14:49:00,38.0,35.3,29.17,North,360,7.0,18.0,90,0.01,,,0.12,Weather View 32 v70,2013-03-02 19:49:00,
2013-03-02 14:54:00,37.0,34.6,29.17,NNW,337,12.0,18.0,91,0.01,,,0.12,Weather View 32 v70,2013-03-02 19:54:00,
2013-03-02 14:59:00,37.0,34.9,29.17,NNW,337,5.0,18.0,92,0.01,,,0.12,Weather View 32 v70,2013-03-02 19:59:00,
2013-03-02 15:04:00,37.0,34.6,29.17,NNW,337,6.0,18.0,91,0.01,,,0.12,Weather View 32 v70,2013-03-02 20:04:00,
2013-03-02 15:09:00,38.0,35.6,29.17,West,270,4.0,18.0,91,0.01,,,0.12,Weather View 32 v70,2013-03-02 20:09:00,
2013-03-02 15:14:00,37.0,34.6,29.17,WNW,292,6.0,18.0,91,0.01,,,0.12,Weather View 32 v70,2013-03-02 20:14:00,
2013-03-02 15:19:00,37.0,34.9,29.17,NNE,22,9.0,18.0,92,0.01,,,0.12,Weather View 32 v70,2013-03-02 20:19:00,
2013-03-02 15:24:00,37.0,35.2,29.17,NNW,337,9.0,17.0,93,0.02,,,0.13,Weather View 32 v70,2013-03-02 20:24:00,
2013-03-02 15:29:00,37.0,35.4,29.17,NNE,22,3.0,17.0,94,0.02,,,0.13,Weather View 32 v70,2013-03-02 20:29:00,
2013-03-02 15:34:00,37.0,35.4,29.17,North,360,7.0,17.0,94,0.02,,,0.13,Weather View 32 v70,2013-03-02 20:34:00,
2013-03-02 15:39:00,36.0,34.4,29.17,NE,45,8.0,17.0,94,0.03,,,0.14,Weather View 32 v70,2013-03-02 20:39:00,
2013-03-02 15:44:00,36.0,34.4,29.17,NNW,337,6.0,15.0,94,0.03,,,0.14,Weather View 32 v70,2013-03-02 20:44:00,
2013-03-02 15:49:00,36.0,34.7,29.16,NW,315,6.0,15.0,95,0.03,,,0.15,Weather View 32 v70,2013-03-02 20:49:00,
2013-03-02 15:54:00,36.0,34.7,29.17,ESE,112,1.0,15.0,95,0.03,,,0.15,Weather View 32 v70,2013-03-02 20:54:00,
2013-03-02 15:59:00,36.0,34.7,29.17,NW,315,1.0,15.0,95,0.03,,,0.15,Weather View 32 v70,2013-03-02 20:59:00,
2013-03-02 16:04:00,36.0,34.7,29.17,NNE,22,7.0,15.0,95,0.04,,,0.16,Weather View 32 v70,2013-03-02 21:04:00,
2013-03-02 16:09:00,36.0,35.0,29.16,NNW,337,3.0,15.0,96,0.04,,,0.16,Weather View 32 v70,2013-03-02 21:09:00,
2013-03-02 16:14:00,36.0,35.0,29.16,NNW,337,4.0,15.0,96,0.04,,,0.16,Weather View 32 v70,2013-03-02 21:14:00,
2013-03-02 16:19:00,36.0,35.0,29.16,West,270,1.0,15.0,96,0.04,,,0.16,Weather View 32 v70,2013-03-02 21:19:00,
2013-03-02 16:24:00,36.0,35.0,29.17,WNW,292,1.0,12.0,96,0.03,,,0.16,Weather View 32 v70,2013-03-02 21:24:00,
2013-03-02 16:29:00,36.0,35.2,29.17,NE,45,0.0,12.0,97,0.03,,,0.16,Weather View 32 v70,2013-03-02 21:29:00,
2013-03-02 16:34:00,36.0,35.2,29.17,WSW,247,1.0,12.0,97,0.04,,,0.17,Weather View 32 v70,2013-03-02 21:34:00,
2013-03-02 16:39:00,36.0,35.2,29.17,NNE,22,7.0,11.0,97,0.03,,,0.17,Weather View 32 v70,2013-03-02 21:39:00,
2013-03-02 16:44:00,36.0,35.2,29.17,SW,225,0.0,11.0,97,0.03,,,0.17,Weather View 32 v70,2013-03-02 21:44:00,
2013-03-02 16:49:00,36.0,35.2,29.18,NW,315,2.0,13.0,97,0.02,,,0.17,Weather View 32 v70,2013-03-02 21:49:00,
2013-03-02 16:54:00,36.0,35.2,29.17,North,360,9.0,13.0,97,0.02,,,0.17,Weather View 32 v70,2013-03-02 21:54:00,
2013-03-02 16:59:00,36.0,35.5,29.17,NNW,337,12.0,13.0,98,0.02,,,0.17,Weather View 32 v70,2013-03-02 21:59:00,
2013-03-02 17:04:00,36.0,35.5,29.17,East,90,6.0,13.0,98,0.02,,,0.18,Weather View 32 v70,2013-03-02 22:04:00,
2013-03-02 17:09:00,36.0,35.5,29.18,NNE,22,2.0,13.0,98,0.02,,,0.18,Weather View 32 v70,2013-03-02 22:09:00,
2013-03-02 17:14:00,36.0,35.5,29.17,North,360,6.0,13.0,98,0.02,,,0.18,Weather View 32 v70,2013-03-02 22:14:00,
2013-03-02 17:19:00,36.0,35.5,29.17,NNE,22,4.0,13.0,98,0.02,,,0.18,Weather View 32 v70,2013-03-02 22:19:00,
2013-03-02 17:24:00,36.0,35.5,29.18,NE,45,2.0,13.0,98,0.02,,,0.18,Weather View 32 v70,2013-03-02 22:24:00,
2013-03-02 17:29:00,36.0,35.5,29.18,NNW,337,4.0,13.0,98,0.02,,,0.18,Weather View 32 v70,2013-03-02 22:29:00,
2013-03-02 17:34:00,35.0,34.5,29.18,North,360,2.0,13.0,98,0.01,,,0.18,Weather View 32 v70,2013-03-02 22:34:00,
2013-03-02 17:39:00,35.0,34.5,29.18,North,360,3.0,13.0,98,0.01,,,0.18,Weather View 32 v70,2013-03-02 22:39:00,
2013-03-02 17:44:00,35.0,34.7,29.18,North,360,5.0,13.0,99,0.02,,,0.19,Weather View 32 v70,2013-03-02 22:44:00,
2013-03-02 17:49:00,35.0,34.7,29.18,NNE,22,5.0,13.0,99,0.02,,,0.19,Weather View 32 v70,2013-03-02 22:49:00,
2013-03-02 17:54:00,35.0,34.7,29.18,North,360,3.0,12.0,99,0.02,,,0.19,Weather View 32 v70,2013-03-02 22:54:00,
2013-03-02 17:59:00,35.0,34.7,29.18,NNE,22,9.0,12.0,99,0.02,,,0.19,Weather View 32 v70,2013-03-02 22:59:00,
2013-03-02 18:04:00,35.0,34.7,29.18,NNE,22,6.0,12.0,99,0.01,,,0.19,Weather View 32 v70,2013-03-02 23:04:00,
2013-03-02 18:09:00,35.0,35.0,29.18,NNE,22,6.0,12.0,100,0.01,,,0.19,Weather View 32 v70,2013-03-02 23:09:00,
2013-03-02 18:14:00,35.0,35.0,29.18,NW,315,4.0,12.0,100,0.01,,,0.19,Weather View 32 v70,2013-03-02 23:14:00,
2013-03-02 18:19:00,35.0,35.0,29.18,NNW,337,6.0,12.0,100,0.02,,,0.20,Weather View 32 v70,2013-03-02 23:19:00,
2013-03-02 18:24:00,35.0,35.0,29.18,East,90,2.0,12.0,100,0.02,,,0.20,Weather View 32 v70,2013-03-02 23:24:00,
2013-03-02 18:29:00,35.0,35.0,29.18,NE,45,7.0,12.0,100,0.02,,,0.20,Weather View 32 v70,2013-03-02 23:29:00,
2013-03-02 18:34:00,35.0,35.0,29.15,NW,315,7.0,12.0,100,0.02,,,0.20,Weather View 32 v70,2013-03-02 23:34:00,
2013-03-02 18:39:00,35.0,35.0,29.19,North,360,6.0,12.0,100,0.02,,,0.20,Weather View 32 v70,2013-03-02 23:39:00,
2013-03-02 18:44:00,35.0,35.0,29.18,East,90,2.0,12.0,100,0.01,,,0.20,Weather View 32 v70,2013-03-02 23:44:00,
2013-03-02 18:49:00,35.0,35.0,29.18,NW,315,3.0,12.0,100,0.01,,,0.20,Weather View 32 v70,2013-03-02 23:49:00,
2013-03-02 18:54:00,35.0,35.0,29.18,North,360,3.0,12.0,100,0.01,,,0.20,Weather View 32 v70,2013-03-02 23:54:00,
2013-03-02 18:59:00,35.0,35.0,29.18,NNW,337,2.0,12.0,100,0.01,,,0.20,Weather View 32 v70,2013-03-02 23:59:00,
2013-03-02 19:04:00,35.0,35.0,29.18,West,270,5.0,10.0,100,0.01,,,0.20,Weather View 32 v70,2013-03-03 00:04:00,
2013-03-02 19:09:00,35.0,35.0,29.19,West,270,1.0,10.0,100,0.01,,,0.20,Weather View 32 v70,2013-03-03 00:09:00,
2013-03-02 19:14:00,35.0,35.0,29.18,North,360,6.0,10.0,100,0.01,,,0.20,Weather View 32 v70,2013-03-03 00:14:00,
2013-03-02 19:19:00,35.0,35.0,29.18,West,270,1.0,10.0,100,0.00,,,0.20,Weather View 32 v70,2013-03-03 00:19:00,
2013-03-02 19:24:00,35.0,35.0,29.18,NNW,337,1.0,10.0,100,0.00,,,0.20,Weather View 32 v70,2013-03-03 00:24:00,
2013-03-02 19:29:00,35.0,35.0,29.18,NW,315,2.0,10.0,100,0.00,,,0.20,Weather View 32 v70,2013-03-03 00:29:00,
2013-03-02 19:34:00,35.0,35.0,29.18,East,90,2.0,10.0,100,0.00,,,0.20,Weather View 32 v70,2013-03-03 00:34:00,
2013-03-02 19:39:00,35.0,35.0,29.18,North,360,3.0,10.0,100,0.00,,,0.20,Weather View 32 v70,2013-03-03 00:39:00,
2013-03-02 19:44:00,35.0,35.0,29.18,North,360,2.0,9.0,100,0.00,,,0.20,Weather View 32 v70,2013-03-03 00:44:00,
2013-03-02 19:49:00,35.0,35.0,29.18,North,360,7.0,10.0,100,0.00,,,0.20,Weather View 32 v70,2013-03-03 00:49:00,
2013-03-02 19:54:00,35.0,35.0,29.18,NNE,22,6.0,10.0,100,0.00,,,0.20,Weather View 32 v70,2013-03-03 00:54:00,
2013-03-02 19:59:00,35.0,35.0,29.18,NNE,22,4.0,10.0,100,0.00,,,0.20,Weather View 32 v70,2013-03-03 00:59:00,
2013-03-02 20:04:00,35.0,35.0,29.18,NNW,337,3.0,10.0,100,0.00,,,0.20,Weather View 32 v70,2013-03-03 01:04:00,
2013-03-02 20:09:00,35.0,35.0,29.18,North,360,3.0,10.0,100,0.00,,,0.20,Weather View 32 v70,2013-03-03 01:09:00,
2013-03-02 20:14:00,35.0,35.0,29.19,SE,135,1.0,10.0,100,0.00,,,0.20,Weather View 32 v70,2013-03-03 01:14:00,
2013-03-02 20:19:00,35.0,35.0,29.18,North,360,8.0,10.0,100,0.00,,,0.20,Weather View 32 v70,2013-03-03 01:19:00,
2013-03-02 20:24:00,35.0,35.0,29.18,NNE,22,8.0,10.0,100,0.00,,,0.20,Weather View 32 v70,2013-03-03 01:24:00,
2013-03-02 20:29:00,35.0,35.0,29.18,NE,45,0.0,10.0,100,0.00,,,0.20,Weather View 32 v70,2013-03-03 01:29:00,
2013-03-02 20:34:00,35.0,35.0,29.18,North,360,2.0,10.0,100,0.00,,,0.20,Weather View 32 v70,2013-03-03 01:34:00,
2013-03-02 20:39:00,35.0,35.0,29.18,North,360,7.0,10.0,100,0.00,,,0.20,Weather View 32 v70,2013-03-03 01:39:00,
2013-03-02 20:44:00,35.0,35.0,29.19,NE,45,7.0,10.0,100,0.00,,,0.20,Weather View 32 v70,2013-03-03 01:44:00,
2013-03-02 20:49:00,35.0,35.0,29.18,NNE,22,6.0,10.0,100,0.00,,,0.20,Weather View 32 v70,2013-03-03 01:49:00,
2013-03-02 20:54:00,35.0,35.0,29.18,West,270,2.0,10.0,100,0.00,,,0.20,Weather View 32 v70,2013-03-03 01:54:00,
2013-03-02 20:59:00,35.0,35.0,29.18,WNW,292,7.0,10.0,100,0.00,,,0.20,Weather View 32 v70,2013-03-03 01:59:00,
2013-03-02 21:04:00,35.0,35.0,29.18,NE,45,9.0,10.0,100,0.00,,,0.20,Weather View 32 v70,2013-03-03 02:04:00,
2013-03-02 21:09:00,35.0,35.0,29.18,NNW,337,2.0,10.0,100,0.00,,,0.20,Weather View 32 v70,2013-03-03 02:09:00,
2013-03-02 21:14:00,35.0,35.0,29.18,North,360,5.0,10.0,100,0.00,,,0.20,Weather View 32 v70,2013-03-03 02:14:00,
2013-03-02 21:19:00,35.0,35.0,29.18,ENE,67,6.0,10.0,100,0.00,,,0.20,Weather View 32 v70,2013-03-03 02:19:00,
2013-03-02 21:24:00,35.0,35.0,29.17,South,180,1.0,10.0,100,0.00,,,0.20,Weather View 32 v70,2013-03-03 02:24:00,
2013-03-02 21:29:00,35.0,35.0,29.17,NE,45,1.0,10.0,100,0.01,,,0.21,Weather View 32 v70,2013-03-03 02:29:00,
2013-03-02 21:34:00,35.0,35.0,29.17,NNE,22,3.0,10.0,100,0.01,,,0.21,Weather View 32 v70,2013-03-03 02:34:00,
2013-03-02 21:39:00,35.0,35.0,29.17,NNW,337,6.0,10.0,100,0.01,,,0.21,Weather View 32 v70,2013-03-03 02:39:00,
2013-03-02 21:44:00,35.0,35.0,29.17,NNW,337,2.0,10.0,100,0.01,,,0.21,Weather View 32 v70,2013-03-03 02:44:00,
2013-03-02 21:49:00,35.0,35.0,29.17,NNE,22,6.0,10.0,100,0.01,,,0.21,Weather View 32 v70,2013-03-03 02:49:00,
2013-03-02 21:54:00,35.0,35.0,29.17,North,360,9.0,10.0,100,0.01,,,0.21,Weather View 32 v70,2013-03-03 02:54:00,
2013-03-02 21:59:00,35.0,35.0,29.17,SSW,202,3.0,10.0,100,0.01,,,0.21,Weather View 32 v70,2013-03-03 02:59:00,
2013-03-02 22:04:00,35.0,35.0,29.17,WNW,292,1.0,10.0,100,0.01,,,0.21,Weather View 32 v70,2013-03-03 03:04:00,
2013-03-02 22:09:00,34.0,34.0,29.17,North,360,0.0,10.0,100,0.01,,,0.21,Weather View 32 v70,2013-03-03 03:09:00,
2013-03-02 22:14:00,34.0,34.0,29.17,North,360,4.0,10.0,100,0.01,,,0.21,Weather View 32 v70,2013-03-03 03:14:00,
2013-03-02 22:19:00,34.0,34.0,29.16,North,360,3.0,10.0,100,0.01,,,0.21,Weather View 32 v70,2013-03-03 03:19:00,
2013-03-02 22:24:00,34.0,34.0,29.16,NNE,22,2.0,10.0,100,0.01,,,0.21,Weather View 32 v70,2013-03-03 03:24:00,
2013-03-02 22:29:00,34.0,34.0,29.16,North,360,1.0,10.0,100,0.00,,,0.21,Weather View 32 v70,2013-03-03 03:29:00,
2013-03-02 22:34:00,34.0,34.0,29.16,NW,315,6.0,10.0,100,0.00,,,0.21,Weather View 32 v70,2013-03-03 03:34:00,
2013-03-02 22:39:00,34.0,34.0,29.16,North,360,3.0,10.0,100,0.00,,,0.21,Weather View 32 v70,2013-03-03 03:39:00,
2013-03-02 22:44:00,35.0,35.0,29.16,NNE,22,7.0,10.0,100,0.00,,,0.21,Weather View 32 v70,2013-03-03 03:44:00,
2013-03-02 22:49:00,34.0,34.0,29.16,NNE,22,5.0,10.0,100,0.00,,,0.21,Weather View 32 v70,2013-03-03 03:49:00,
2013-03-02 22:54:00,34.0,34.0,29.15,NW,315,3.0,10.0,100,0.00,,,0.21,Weather View 32 v70,2013-03-03 03:54:00,
2013-03-02 22:59:00,34.0,34.0,29.15,NNE,22,4.0,10.0,100,0.00,,,0.21,Weather View 32 v70,2013-03-03 03:59:00,
2013-03-02 23:04:00,34.0,34.0,29.15,NNW,337,1.0,10.0,100,0.00,,,0.21,Weather View 32 v70,2013-03-03 04:04:00,
2013-03-02 23:09:00,34.0,34.0,29.15,NW,315,1.0,10.0,100,0.00,,,0.21,Weather View 32 v70,2013-03-03 04:09:00,
2013-03-02 23:14:00,34.0,34.0,29.15,North,360,5.0,10.0,100,0.00,,,0.21,Weather View 32 v70,2013-03-03 04:14:00,
2013-03-02 23:19:00,34.0,34.0,29.15,NW,315,0.0,10.0,100,0.00,,,0.21,Weather View 32 v70,2013-03-03 04:19:00,
2013-03-02 23:24:00,34.0,34.0,29.15,North,360,4.0,10.0,100,0.00,,,0.21,Weather View 32 v70,2013-03-03 04:24:00,
2013-03-02 23:29:00,34.0,34.0,29.15,North,360,3.0,10.0,100,0.00,,,0.21,Weather View 32 v70,2013-03-03 04:29:00,
2013-03-02 23:34:00,34.0,34.0,29.15,East,90,4.0,10.0,100,0.00,,,0.21,Weather View 32 v70,2013-03-03 04:34:00,
2013-03-02 23:39:00,34.0,34.0,29.15,NNE,22,7.0,10.0,100,0.00,,,0.21,Weather View 32 v70,2013-03-03 04:39:00,
2013-03-02 23:44:00,34.0,34.0,29.15,NE,45,6.0,10.0,100,0.00,,,0.21,Weather View 32 v70,2013-03-03 04:44:00,
2013-03-02 23:49:00,34.0,34.0,29.15,NNE,22,7.0,10.0,100,0.00,,,0.21,Weather View 32 v70,2013-03-03 04:49:00,
2013-03-02 23:54:00,34.0,34.0,29.16,NE,45,1.0,10.0,100,0.00,,,0.21,Weather View 32 v70,2013-03-03 04:54:00,
2013-03-02 23:59:00,34.0,34.0,29.16,NNE,22,6.0,10.0,100,0.00,,,0.00,Weather View 32 v70,2013-03-03 04:59:00,